Location: Young's Pond
(41.2695°N, 72.7766°W)
Time: 08:42:30
(UTC-04:00)

Spot 4 - Visible Passes

Search period start: 29 July 2014 00:00
Search period end: 08 August 2014 00:00
Orbit: 707 x 724 km, 98.5° (Epoch: 28 July)

Date Brightness Start Highest point End Pass type
(mag) Time Alt. Az. Time Alt. Az. Time Alt. Az.
29 Jul 5.7 20:50:27 10° E 20:53:28 17° ENE 20:56:29 10° NNE visible
29 Jul 4.3 22:28:56 33° SSW 22:30:57 59° W 22:35:46 10° NNW visible
30 Jul 4.4 21:37:17 23° SE 21:39:56 44° ENE 21:44:33 10° N visible
30 Jul 5.8 23:16:27 17° WSW 23:18:06 20° W 23:21:41 10° NW visible
31 Jul 5.8 20:46:34 10° E 20:49:19 15° ENE 20:52:04 10° NNE visible
31 Jul 4.1 22:24:49 35° S 22:26:44 65° WSW 22:31:35 10° NNW visible
01 Aug 4.5 21:33:10 22° SE 21:35:46 40° ENE 21:40:17 10° N visible
01 Aug 5.7 23:12:20 19° WSW 23:13:51 22° W 23:17:39 10° NW visible
02 Aug 5.8 20:42:44 10° E 20:45:10 14° ENE 20:47:36 10° NNE visible
02 Aug 4.0 22:20:42 38° S 22:22:32 72° WSW 22:27:24 10° NNW visible
03 Aug 4.7 21:29:04 21° ESE 21:31:35 36° ENE 21:36:01 10° N visible
03 Aug 5.5 23:08:14 22° WSW 23:09:37 25° W 23:13:35 10° NW visible
04 Aug 5.9 20:38:58 10° E 20:41:01 13° ENE 20:43:05 10° NE visible
04 Aug 3.9 22:16:36 41° S 22:18:19 80° WSW 22:23:13 10° NNW visible
05 Aug 4.8 21:24:57 21° ESE 21:27:24 33° ENE 21:31:44 10° N visible
05 Aug 5.4 23:04:08 24° WSW 23:05:23 27° W 23:09:31 10° NW visible
06 Aug 6.0 20:35:19 10° ENE 20:36:53 12° ENE 20:38:27 10° NE visible
06 Aug 3.8 22:12:30 43° SSE 22:14:07 87° WSW 22:19:01 10° NNW visible
07 Aug 4.9 21:20:52 20° ESE 21:23:14 30° ENE 21:27:27 10° N visible
07 Aug 5.3 23:00:02 27° WSW 23:01:08 30° W 23:05:25 10° NW visible
